sat.trackr.live / text

‹ back to catalog

STARLINK-30454

NORAD 57915 · 2023-147C

PAYLOAD ACTIVE UNKNOWN

§ Identity

Operator
Country
US
Launch date
2023-09-24
Launch site
AFETR
Launch vehicle
Mass (kg)
RCS (m²)

Purposes: comms

External: N2YO · Heavens-Above · Gunter

§ Orbital elements

Epoch: 2026-05-25T00:26:45.826080Z

Period
94.27 min
Inclination
43.0023°
Eccentricity
0.0001180
Mean motion
15.27569177 rev/d
Perigee alt
482.3 km
Apogee alt
483.9 km
Semi-major
6,861.2 km
B*
-7.4004e-5
RAAN
253.9655°
Arg perigee
265.6595°
Mean anomaly
94.4122°
Rev number
14,827

§ Raw data

STARLINK-304541 57915U 23147C   26145.01858595 -.00002297  00000+0 -74004-4 0  99932 57915  43.0023 253.9655 0001180 265.6595  94.4122 15.27569177148278

JSON: /api/v1/satellites/57915 · /tle

For live sub-satellite position, see the globe view (requires WebGL).

§ Visibility from observer

Set your observer location to see the next 7 days of passes ≥ 10°. The values pass through the URL so the page stays shareable.

No JS? Fill the form by hand. The geolocation button needs JavaScript.